Regional Weather Roundup
Issued by NWS

Home | Current Version | Previous Version | Graphics & Text | Print | Product List | Glossary On
Versions: 1 2 3 4 5 6 7 8 9 10 11 12 13 14 15 16 17 18 19 20 21 22 23 24 25 26 27
000
ASUS45 KBOU 201407
RWRCO

WEATHER ROUNDUP FOR COLORADO
NATIONAL WEATHER SERVICE DENVER/BOULDER CO
700 AM MST MON FEB 20 2017

NOTE: "FAIR" INDICATES FEW OR NO CLOUDS BELOW 12000 FEET WITH NO
SIGNIFICANT WEATHER AND/OR OBSTRUCTIONS TO VISIBILITY.

COZ001>005-013-030-031-201500-
...NORTHWEST COLORADO...

CITY           SKY/WX    TMP DP  RH WIND       PRES   REMARKS
CRAIG          FOG       25  22  88 E6        30.10R VSB 1/2 WCI  18
HAYDEN         CLOUDY    21  18  86 CALM      30.09R VSB 1/2
MEEKER         FAIR      25  22  88 E6        30.10S WCI  18
MOUNT WERNER   NOT AVBL
STEAMBOAT SPGS CLOUDY    25  24  97 CALM      30.08S VSB<1/4
WALDEN         NOT AVBL
$$

COZ006>008-011-201500-
...WEST CENTRAL VALLEYS...

CITY           SKY/WX    TMP DP  RH WIND       PRES   REMARKS
GRAND JUNCTION CLOUDY    38  38 100 SE12      30.11S
MONTROSE       CLOUDY    29  28  96 SE7       30.17R WCI  22
EAGLE          CLOUDY    28  27  93 E7        30.15R FOG     WCI  21
RIFLE          CLOUDY    36  34  92 S3        30.13R
DELTA          CLOUDY    37  36  96 NE7       30.15R
NUCLA          FAIR      32  30  93 E7        30.19R WCI  26
$$

COZ017>023-064>068-201500-
...SOUTHWEST COLORADO...

CITY           SKY/WX    TMP DP  RH WIND       PRES   REMARKS
DURANGO        FAIR      26  22  84 NE3       30.13R
CORTEZ         FAIR      31  30  96 NE5       30.15R WCI  26
PAGOSA SPRINGS CLOUDY    28  28 100 NE3       30.16R
TELLURIDE      FAIR      22  19  91 SE5       30.17R WCI  15
WOLF CREEK PAS FAIR      12   9  85 NW6       30.18R WCI   3
$$

COZ009-010-012-014-032>034-037-058>063-201500-
...CENTRAL COLORADO...

CITY           SKY/WX    TMP DP  RH WIND       PRES   REMARKS
ASPEN          CLOUDY    27  25  92 N3        30.11R
BUENA VISTA    FAIR      29  14  53 CALM      30.09R
COPPER MTN     MOCLDY    18  10  73 MISG      30.07R
BERTHOUD PASS  CLOUDY    10   0  61 NW31      30.00R WCI -12
COTTONWOOD PAS FAIR      27  10  50 NW9G16    30.07R WCI  17
GUNNISON       FAIR      21  17  84 N6        30.14R WCI  13
KREMMLING      FAIR      23  19  86 CALM      30.11R
LEADVILLE      FAIR      12   8  84 E6        30.08R WCI   3
MONARCH PASS   CLOUDY    16  12  86 W16       30.20R WCI   0
SALIDA         FAIR      32  16  52 W5        30.15R WCI  27
SUNLIGHT       NOT AVBL
WILKERSON PASS FAIR      19   1  45 NW5       30.06R WCI  13
$$

COZ069>075-201500-
...SAN LUIS VALLEY/SANGRE DE CRISTO MOUNTAINS...

CITY           SKY/WX    TMP DP  RH WIND       PRES   REMARKS
ALAMOSA        FAIR      26  20  77 SE5       30.08R WCI  20
LA VETA PASS   FAIR      23  18  80 NE22G30   30.06R WCI   8
SAGUACHE       NOT AVBL
$$

COZ035-036-038>040-201500-
...NORTHERN COLORADO FRONT RANGE...

CITY           SKY/WX    TMP DP  RH WIND       PRES   REMARKS
DENVER INTL AP FAIR      37  16  42 W3        29.94R
DMNS CITY PARK   N/A     44  10  25 W18G25    29.94R
AURORA         PTCLDY    37  14  38 W14       29.94R
FRONT RANGE AP NOT AVBL
ERIE MUNI ARPT FAIR      38  11  33 E8        29.92R
BOULDER MUN AP FAIR      45  12  26 NW15G23   29.93S
CENTENNIAL     FAIR      41  13  31 W13       29.95R
BROOMFIELD     PTCLDY    39  12  33 W8        29.95R
FORT COLLINS   FAIR      46  11  24 NW20G30   29.90F
LONGMONT       FAIR      38  16  41 NW10      29.94R
$$

COZ041-046-047-076>085-087-088-201500-
...PIKES PEAK/PALMER DIVIDE AND SOUTHERN FOOTHILLS...

CITY           SKY/WX    TMP DP  RH WIND       PRES   REMARKS
COLO. SPRINGS  FAIR      38   8  29 NW10      29.97R
A. F. ACADEMY  FAIR      29   8  40 N6        29.97R WCI  23
SCHRIEVER AFB  FAIR      33  10  38 NW9       29.98R WCI  25
ELLICOTT       FAIR     N/A N/A N/A NW9       29.96R
FALCON         FAIR      29   9  43 NW3       29.98R
FORT CARSON    FAIR      35  18  49 SW9       29.96R WCI  28
LIMON          FAIR      27  18  69 W6        29.94R WCI  20
MONUMENT HILL  FAIR      28  12  50 W12       29.98S WCI  18
TRINIDAD       FAIR      35  20  54 S8        30.00R WCI  29
$$

COZ042>045-048>051-090-091-201500-
...NORTHEAST COLORADO...

CITY           SKY/WX    TMP DP  RH WIND       PRES   REMARKS
GREELEY ARPT   FAIR      34  20  56 VRB6      29.95R WCI  29
AKRON          FAIR      37  18  46 W12       29.89R
BURLINGTON     FAIR      35  19  52 NW12      29.89R WCI  27
WRAY           NOT AVBL
STERLING       FAIR      34  19  55 NW7       29.87S WCI  28
HOLYOKE        FAIR      43  21  42 W15G23    29.85R
FORT MORGAN    FAIR      38  18  43 W14       29.92R
$$

COZ086-089-092>099-201500-
...SOUTHEAST COLORADO...

CITY           SKY/WX    TMP DP  RH WIND       PRES   REMARKS
PUEBLO         FAIR      35  27  72 W10       29.96R WCI  27
LA JUNTA       FAIR      41  26  55 NW10      29.95R
LAMAR          FAIR      42  24  49 W10       29.89R
SPRINGFIELD      N/A     42  27  55 NW14      29.91R
$$




USA.gov is the U.S. government's official web portal to all federal, state and local government web resources and services.